AirNav   Air Wisconsin pilot careers
 
 717 users online  

26R Jackson County Airport
Edna, Texas, USA


FAA INFORMATION EFFECTIVE 01 FEBRUARY 2018

Location

FAA Identifier: 26R
Lat/Long: 29-00-03.5963N / 096-34-55.0637W
29-00.059938N / 096-34.917728W
29.0009990 / -96.5819621
(estimated)
Elevation: 61.4 ft. / 19 m (estimated)
Variation: 03E (2020)
From city: 3 miles NE of EDNA, TX
Time zone: UTC -6 (UTC -5 during Daylight Saving Time)
Zip code: 77957

Airport Operations

Airport use: Open to the public
Activation date: 03/1967
Control tower: no
ARTCC: HOUSTON CENTER
FSS: MONTGOMERY COUNTY FLIGHT SERVICE STATION
FOR FP FILING CALL CXO FSS 1-800-833-5602
NOTAMs facility: CXO (NOTAM-D service available)
Attendance: UNATTENDED
Wind indicator: lighted
Segmented circle: yes
Lights: MIRL RWY 15/33 PRESET TO LOW. TO INCR INTST AND ACTIVATE - CTAF.
Beacon: white-green (lighted land airport)
Operates sunset to sunrise.

Airport Communications

CTAF/UNICOM: 122.8
WX ASOS at VCT (20 nm SW): 119.025 (361-578-9916)
  • APCH/DEP SVC PRVVD BY HOUSTON ARTCC (ZHU) ON 128.6/360.8 (PALACIOS RCAG).

Nearby radio navigation aids

VOR radial/distance  VOR name  Freq  Var
PSXr306/20.3PALACIOS VORTAC117.3008E
VCTr068/21.7VICTORIA VOR/DME109.0006E

 
NDB name  Hdg/Dist  Freq  Var  ID
WHARTON230/27.224506EARM .- .-. --
YOAKUM117/34.635006EOKT --- -.- -

Airport Services

Fuel available: 100LL
FUEL AVBL 24 HRS WITH CREDIT CARD.
Parking: tiedowns
Airframe service: MAJOR
Powerplant service: MAJOR

Runway Information

Runway 15/33

Dimensions: 3393 x 70 ft. / 1034 x 21 m
Surface: asphalt, in fair condition
Weight bearing capacity: 
Single wheel: 12.5
Runway edge lights: medium intensity
RUNWAY 15  RUNWAY 33
Latitude: 29-00.301438N28-59.818510N
Longitude: 096-35.078683W096-34.756785W
Elevation: 61.0 ft.60.6 ft.
Traffic pattern: leftleft
Runway heading: 147 magnetic, 150 true327 magnetic, 330 true
Markings: nonprecision, in good conditionnonprecision, in good condition
Touchdown point: yes, no lightsyes, no lights
Obstructions: 30 ft. pline, 1560 ft. from runway, 45:1 slope to clearnone

Airport Ownership and Management from official FAA records

Ownership: Publicly-owned
Owner: JACKSON COUNTY
115 W. MAIN, RM 207
EDNA, TX 77957
Phone 361-782-2352
DENNIS KARL - COUNTY COMMISSIONER.
Manager: RICK MCCLURE
303 MAGNOLIA
VICTORIA, TX 77901
Phone 361-652-4163

Airport Operational Statistics

Aircraft based on the field: 19
Single engine airplanes: 18
Multi engine airplanes: 1
    
Aircraft operations: avg 21/day *
66% local general aviation
33% transient general aviation
1% military
* for 12-month period ending 04 May 2017

Additional Remarks

A104 HEAVY ITINERANT TRAFFIC ON WEEKENDS.
TO MONITOR AEROBATIC BOX - 123.3.
TAXIWAY HAS REFLECTORS ON PAVEMENT.

Instrument Procedures

NOTE: All procedures below are presented as PDF files. If you need a reader for these files, you should download the free Adobe Reader.

NOT FOR NAVIGATION. Please procure official charts for flight.
FAA instrument procedures published for use between 1 February 2018 at 0901Z and 1 March 2018 at 0900Z.

 
IAPs - Instrument Approach Procedures
RNAV (GPS)-A   download (126KB)
RNAV (GPS)-B   download (134KB)
NOTE: Special Take-Off Minimums/Departure Procedures apply   download (93KB)

Other nearby airports with instrument procedures:

KVCT - Victoria Regional Airport (20 nm SW)
KPKV - Calhoun County Airport (22 nm S)
KPSX - Palacios Municipal Airport (24 nm SE)
KARM - Wharton Regional Airport (27 nm NE)
T85 - Yoakum Municipal Airport (35 nm NW)
 
Loc | Ops | Rwys | IFR | FBO | Links
Com | Nav | Svcs | Stats | Notes

AirNav Hotels Sweepstakes
 
Area around 26R (Jackson County Airport)
 
Road maps at: MapQuest Bing Google
 
Aerial photo
WARNING: Photo may not be current or correct
Aerial photo of 26R (Jackson County Airport)
Do you have a better or more recent aerial photo of Jackson County Airport that you would like to share? If so, please send us your photo.

 
Sectional chart

 
Airport distance calculator
Flying to Jackson County Airport? Find the distance to fly.

From to 26R

Sunrise and sunset
Times for 24-Feb-2018
 Local
(UTC-6)
 Zulu
(UTC)
Morning civil twilight06:3412:34
Sunrise06:5812:58
Sunset18:2200:22
Evening civil twilight18:4500:45

Current date and time
Zulu (UTC)  25-Feb-2018 04:08:43
Local (UTC-6)  24-Feb-2018 22:08:43
 
METAR
KVCT 
20nm SW 
250351Z AUTO 15004KT 8SM BKN010 22/20 A2993 RMK AO2 SLP132 T02220200
KPKV 
21nm S 
250355Z AUTO 18009KT 7SM BKN011 BKN050 BKN120 22/21 A2992 RMK AO2 T02230206
KPSX 
24nm SE 
250353Z AUTO 16010KT 6SM BR OVC013 23/22 A2992 RMK AO2 SLP131 T02280222
KARM 
27nm NE 
250355Z AUTO 19004KT 7SM OVC012 22/20 A2995 RMK AO2 T02200204
KBYY 
38nm E 
250355Z AUTO 18006KT 5SM BR BKN009 22/22 A2994 RMK AO2 T02250220
KELA 
38nm N 
250355Z AUTO 00000KT 7SM BKN013 OVC020 22/22 A2994 RMK AO2 T02210215
K66R 
39nm N 
250355Z AUTO 21003KT 10SM OVC014 22/20 A2994 RMK AO2 T02150203
TAF
KVCT 
20nm SW 
250219Z 2502/2524 19012KT P6SM SCT030 OVC200 FM250600 14003KT 6SM BR VCTS OVC015CB TEMPO 2508/2512 3SM TSRA BR OVC010CB FM251200 VRB03KT 5SM -SHRA BR OVC020 FM251500 04010KT P6SM -SHRA OVC025
NOTAMs
Click for the latest NOTAMs
NOTAMs are issued by the DoD/FAA and will open in a separate window not controlled by AirNav.

 

 
 

FBO, Fuel Providers, and Aircraft Ground Support

  
 Business Name 
 
 Contact 
 
 Services / Description 
 
Fuel Prices
 
Comments
  
Jackson County Airport 361-652-4163
[web site]
[email]
Aviation fuel, Hangar leasing / sales

More info about Jackson County Airport
independent
100LL
SS $4.09 
 Updated 19-Feb-2018
 
   write
SS=Self service
Update Fuel Prices
 

Would you like to see your business listed on this page?

 If your business provides an interesting product or service to pilots, flight crews, aircraft, or users of the Jackson County Airport, you should consider listing it here.  To start the listing process, click on the button below
 
Add a business
 

Other Pages about Jackson County Airport

Jackson County Airport
 
Update a link
 
Copyright © AirNav, LLC. All rights reserved. Privacy Policy  Contact